Home > Weather > Bathurst > Past weeks

Flag for Canada Weather for the Past 2 Weeks in Bathurst, New Brunswick, Canada

Now
39 °F

Light rain. Fog.


Feels Like: 34 °F
Forecast: 35 / 46 °F
Wind: 7 mph from Northeast

Location: Bathurst Airport

Current Time: May 3, 2016 at 3:15:02 PM

Latest Report: May 3, 2016 at 2:00 PM


Visibility: 5 mi

Pressure: 29.93 "Hg

Humidity: 93%

Dew Point: 37 °F

Location of BathurstLocation

Historic Weather in Bathurst — Graph

°F

Bathurst Temperature Yesterday

Maximum temperature yesterday: 50 °F (at 2:00 PM)
Minimum temperature yesterday: 34 °F (at 6:00 AM)
Average temperature yesterday: 42 °F

High & Low Weather Summary for the Past Weeks

 TemperatureHumidityPressure
High70 °F (Apr 21, 5:00 PM)100% (Apr 23, 7:00 AM)30.30 "Hg (Apr 23, 7:00 AM)
Low21 °F (Apr 26, 6:00 AM)14% (Apr 29, 5:00 PM)29.73 "Hg (Apr 26, 6:00 PM)
Average39 °F53%29.98 "Hg
* Reported Apr 18 2:00 PM — May 3 2:00 PM, Bathurst, Weather by CustomWeather, © 2016

Note: Actual official high and low records may vary slightly from our data, if they occured in-between our weather recording intervals... More about our weather records

Advertising

Bathurst Weather History for the Previous 24 Hours

Scroll right to see more
 ConditionsComfort  
Time TempWeatherWind HumidityBarometerVisibility
2:00 PM
Tue, May 3
39 °FLight rain. Fog.7 mph93%29.93 "Hg5 mi
1:00 PM39 °FLight rain. Fog.10 mph93%29.95 "Hg3 mi
12:00 PM41 °FLight rain. Fog.8 mph93%29.95 "Hg3 mi
11:00 AM39 °FLight rain. Fog.8 mph93%29.95 "Hg4 mi
10:00 AM39 °FLight rain. Fog.9 mph93%29.94 "Hg4 mi
9:00 AM39 °FLight rain. Fog.13 mph93%29.95 "Hg5 mi
8:00 AM39 °FLight rain. Fog.7 mph93%29.95 "Hg5 mi
7:00 AM37 °FLight rain. Mostly cloudy.5 mph100%29.97 "Hg8 mi
6:00 AM37 °FLight rain. Mostly cloudy.7 mph93%29.98 "Hg12 mi
5:00 AM37 °FLight rain. Low clouds.6 mph93%29.98 "Hg10 mi
4:48 AM37 °FLight rain. Low clouds.6 mph100%29.98 "Hg10 mi
4:00 AM39 °FLight rain. Overcast.7 mph93%29.97 "Hg10 mi
3:00 AM39 °FLight rain. Overcast.7 mph93%29.96 "Hg10 mi
2:00 AM39 °FLight rain. Overcast.6 mph93%29.98 "Hg10 mi
1:00 AM39 °FSprinkles. Overcast.3 mph93%30.02 "Hg12 mi
12:00 AM41 °FSprinkles. Passing clouds.2 mph87%30.04 "Hg12 mi
11:00 PM
Mon, May 2
41 °FOvercast.5 mph87%30.06 "Hg12 mi
10:00 PM41 °FOvercast.3 mph87%30.08 "Hg12 mi
9:00 PM41 °FOvercast.2 mph87%30.09 "Hg15 mi
8:00 PM45 °FCloudy.6 mph87%30.08 "Hg12 mi
7:45 PM46 °FMostly cloudy.3 mph87%30.08 "Hg12 mi
7:00 PM46 °FLight rain. More clouds than sun.5 mph87%30.10 "Hg10 mi
6:00 PM46 °FLight rain. Low clouds.3 mph76%30.12 "Hg10 mi
5:00 PM48 °FSprinkles. Overcast.3 mph66%30.12 "Hg15 mi
4:00 PM50 °FSprinkles. Mostly cloudy.5 mph58%30.12 "Hg15 mi
3:00 PM50 °FOvercast.6 mph54%30.13 "Hg15 mi
Weather by CustomWeather, © 2016

See weather overviewHow to use our weather pages